Time,TemperatureF,DewpointF,PressureIn,WindDirection,WindDirectionDegrees,WindSpeedMPH,WindSpeedGustMPH,Humidity,HourlyPrecipIn,Conditions,Clouds,dailyrainin,SoftwareType,DateUTC
2013-09-01 00:04:00,82.2,71.0,29.86,ESE,123,0.0,0.0,69,0.00,,,0.00,Wunderground v.1.15,2013-09-01 05:04:00,
2013-09-01 00:09:00,82.1,70.9,29.86,ESE,106,1.0,1.0,69,0.00,,,0.00,Wunderground v.1.15,2013-09-01 05:09:00,
2013-09-01 00:19:00,81.7,71.0,29.86,ESE,112,0.0,1.0,70,0.00,,,0.00,Wunderground v.1.15,2013-09-01 05:19:00,
2013-09-01 00:24:00,81.6,70.9,29.86,SE,136,0.0,1.0,70,0.00,,,0.00,Wunderground v.1.15,2013-09-01 05:24:00,
2013-09-01 00:30:00,81.4,70.7,29.86,SE,139,0.0,0.0,70,0.00,,,0.00,Wunderground v.1.15,2013-09-01 05:30:00,
2013-09-01 00:39:00,81.1,70.8,29.85,SE,138,0.0,0.0,71,0.00,,,0.00,Wunderground v.1.15,2013-09-01 05:39:00,
2013-09-01 00:50:00,80.7,70.4,29.85,SW,224,0.0,0.0,71,0.00,,,0.00,Wunderground v.1.15,2013-09-01 05:50:00,
2013-09-01 00:59:00,80.4,70.5,29.85,SSE,147,0.0,0.0,72,0.00,,,0.00,Wunderground v.1.15,2013-09-01 05:59:00,
2013-09-01 01:05:00,80.3,70.9,29.86,SW,222,0.0,0.0,73,0.00,,,0.00,Wunderground v.1.15,2013-09-01 06:05:00,
2013-09-01 01:10:00,80.1,70.7,29.86,SSE,150,0.0,0.0,73,0.00,,,0.00,Wunderground v.1.15,2013-09-01 06:10:00,
2013-09-01 01:20:00,79.8,70.8,29.86,SW,222,0.0,0.0,74,0.00,,,0.00,Wunderground v.1.15,2013-09-01 06:20:00,
2013-09-01 01:30:00,79.4,70.4,29.86,SW,226,0.0,0.0,74,0.00,,,0.00,Wunderground v.1.15,2013-09-01 06:30:00,
2013-09-01 01:35:00,79.3,70.7,29.86,WSW,240,0.0,0.0,75,0.00,,,0.00,Wunderground v.1.15,2013-09-01 06:35:00,
2013-09-01 01:45:00,78.9,70.3,29.86,WSW,240,0.0,0.0,75,0.00,,,0.00,Wunderground v.1.15,2013-09-01 06:45:00,
2013-09-01 01:55:00,78.6,70.4,29.86,SW,215,0.0,2.0,76,0.00,,,0.00,Wunderground v.1.15,2013-09-01 06:55:00,
2013-09-01 02:05:00,78.9,71.1,29.86,WNW,282,1.0,1.0,77,0.00,,,0.00,Wunderground v.1.15,2013-09-01 07:05:00,
2013-09-01 02:15:00,78.8,71.0,29.86,West,264,0.0,1.0,77,0.00,,,0.00,Wunderground v.1.15,2013-09-01 07:15:00,
2013-09-01 02:25:00,78.6,71.2,29.86,SSW,201,0.0,1.0,78,0.00,,,0.00,Wunderground v.1.15,2013-09-01 07:25:00,
2013-09-01 02:35:00,78.5,71.4,29.86,WSW,256,1.0,1.0,79,0.00,,,0.00,Wunderground v.1.15,2013-09-01 07:35:00,
2013-09-01 02:45:00,78.5,71.4,29.86,SW,222,1.0,1.0,79,0.00,,,0.00,Wunderground v.1.15,2013-09-01 07:45:00,
2013-09-01 02:55:00,78.3,71.6,29.87,SW,229,0.0,1.0,80,0.00,,,0.00,Wunderground v.1.15,2013-09-01 07:55:00,
2013-09-01 03:05:00,78.2,71.9,29.86,SW,233,0.0,0.0,81,0.00,,,0.00,Wunderground v.1.15,2013-09-01 08:05:00,
2013-09-01 03:15:00,78.0,72.1,29.87,WSW,258,0.0,1.0,82,0.00,,,0.00,Wunderground v.1.15,2013-09-01 08:15:00,
2013-09-01 03:25:00,77.8,72.2,29.87,WSW,257,0.0,0.0,83,0.00,,,0.00,Wunderground v.1.15,2013-09-01 08:25:00,
2013-09-01 03:35:00,77.5,71.9,29.87,WSW,257,0.0,0.0,83,0.00,,,0.00,Wunderground v.1.15,2013-09-01 08:35:00,
2013-09-01 03:40:00,77.4,72.2,29.87,WSW,256,0.0,0.0,84,0.00,,,0.00,Wunderground v.1.15,2013-09-01 08:40:00,
2013-09-01 03:50:00,77.0,71.8,29.87,WSW,255,0.0,0.0,84,0.00,,,0.00,Wunderground v.1.15,2013-09-01 08:50:00,
2013-09-01 03:55:00,76.8,71.6,29.87,WSW,256,0.0,0.0,84,0.00,,,0.00,Wunderground v.1.15,2013-09-01 08:55:00,
2013-09-01 04:05:00,76.6,71.7,29.87,WSW,256,0.0,0.0,85,0.00,,,0.00,Wunderground v.1.15,2013-09-01 09:05:00,
2013-09-01 04:15:00,76.4,71.9,29.87,WSW,256,0.0,0.0,86,0.00,,,0.00,Wunderground v.1.15,2013-09-01 09:15:00,
2013-09-01 04:25:00,76.2,72.0,29.87,WSW,256,0.0,0.0,87,0.00,,,0.00,Wunderground v.1.15,2013-09-01 09:25:00,
2013-09-01 04:35:00,76.0,71.8,29.87,WSW,255,0.0,0.0,87,0.00,,,0.00,Wunderground v.1.15,2013-09-01 09:35:00,
2013-09-01 04:45:00,75.7,71.9,29.87,WSW,255,0.0,0.0,88,0.00,,,0.00,Wunderground v.1.15,2013-09-01 09:45:00,
2013-09-01 04:55:00,75.6,72.1,29.87,WSW,255,0.0,0.0,89,0.00,,,0.00,Wunderground v.1.15,2013-09-01 09:55:00,
2013-09-01 05:00:00,75.5,72.0,29.87,WSW,256,0.0,0.0,89,0.00,,,0.00,Wunderground v.1.15,2013-09-01 10:00:00,
2013-09-01 05:10:00,75.5,72.4,29.87,WSW,256,0.0,0.0,90,0.00,,,0.00,Wunderground v.1.15,2013-09-01 10:10:00,
2013-09-01 05:20:00,75.3,72.2,29.87,WSW,256,0.0,0.0,90,0.00,,,0.00,Wunderground v.1.15,2013-09-01 10:20:00,
2013-09-01 05:30:00,75.2,72.1,29.87,WSW,256,0.0,0.0,90,0.00,,,0.00,Wunderground v.1.15,2013-09-01 10:30:00,
2013-09-01 05:40:00,75.1,72.3,29.87,WSW,256,0.0,0.0,91,0.00,,,0.00,Wunderground v.1.15,2013-09-01 10:40:00,
2013-09-01 05:50:00,74.8,72.0,29.87,WSW,256,0.0,0.0,91,0.00,,,0.00,Wunderground v.1.15,2013-09-01 10:50:00,
2013-09-01 06:00:00,74.6,71.8,29.87,WSW,256,0.0,0.0,91,0.00,,,0.00,Wunderground v.1.15,2013-09-01 11:00:00,
2013-09-01 06:10:00,74.3,71.8,29.88,WSW,256,0.0,0.0,92,0.00,,,0.00,Wunderground v.1.15,2013-09-01 11:10:00,
2013-09-01 06:20:00,74.3,71.8,29.88,WSW,256,0.0,0.0,92,0.00,,,0.00,Wunderground v.1.15,2013-09-01 11:20:00,
2013-09-01 06:30:00,74.2,71.7,29.88,WSW,256,0.0,0.0,92,0.00,,,0.00,Wunderground v.1.15,2013-09-01 11:30:00,
2013-09-01 06:40:00,73.9,71.4,29.88,WSW,256,0.0,0.0,92,0.00,,,0.00,Wunderground v.1.15,2013-09-01 11:40:00,
2013-09-01 06:50:00,73.7,71.5,29.89,WSW,256,0.0,0.0,93,0.00,,,0.00,Wunderground v.1.15,2013-09-01 11:50:00,
2013-09-01 07:00:00,73.6,71.8,29.89,WSW,256,0.0,0.0,94,0.00,,,0.00,Wunderground v.1.15,2013-09-01 12:00:00,
2013-09-01 07:05:00,73.6,71.8,29.89,WSW,256,0.0,0.0,94,0.00,,,0.00,Wunderground v.1.15,2013-09-01 12:05:00,
2013-09-01 07:15:00,73.4,71.6,29.89,WSW,255,0.0,0.0,94,0.00,,,0.00,Wunderground v.1.15,2013-09-01 12:15:00,
2013-09-01 07:20:00,73.3,71.5,29.89,WSW,256,0.0,0.0,94,0.00,,,0.00,Wunderground v.1.15,2013-09-01 12:20:00,
2013-09-01 07:30:00,73.0,71.2,29.90,WSW,256,0.0,0.0,94,0.00,,,0.00,Wunderground v.1.15,2013-09-01 12:30:00,
2013-09-01 07:40:00,72.9,71.1,29.90,WSW,255,0.0,0.0,94,0.00,,,0.00,Wunderground v.1.15,2013-09-01 12:40:00,
2013-09-01 07:50:00,73.0,71.5,29.90,WSW,256,0.0,0.0,95,0.00,,,0.00,Wunderground v.1.15,2013-09-01 12:50:00,
2013-09-01 08:00:00,73.3,71.8,29.90,WSW,256,0.0,0.0,95,0.00,,,0.00,Wunderground v.1.15,2013-09-01 13:00:00,
2013-09-01 08:05:00,73.6,72.1,29.90,WSW,256,0.0,0.0,95,0.00,,,0.00,Wunderground v.1.15,2013-09-01 13:05:00,
2013-09-01 08:15:00,74.1,72.9,29.91,WSW,256,0.0,0.0,96,0.00,,,0.00,Wunderground v.1.15,2013-09-01 13:15:00,
2013-09-01 08:25:00,74.8,73.6,29.91,WSW,256,0.0,0.0,96,0.00,,,0.00,Wunderground v.1.15,2013-09-01 13:25:00,
2013-09-01 08:35:00,75.4,73.9,29.91,WSW,256,0.0,0.0,95,0.00,,,0.00,Wunderground v.1.15,2013-09-01 13:35:00,
2013-09-01 08:45:00,76.2,74.3,29.91,SSW,212,0.0,0.0,94,0.00,,,0.00,Wunderground v.1.15,2013-09-01 13:45:00,
2013-09-01 08:55:00,77.1,74.6,29.91,SW,231,0.0,1.0,92,0.00,,,0.00,Wunderground v.1.15,2013-09-01 13:55:00,
2013-09-01 09:05:00,77.9,74.7,29.91,WSW,257,1.0,1.0,90,0.00,,,0.00,Wunderground v.1.15,2013-09-01 14:05:00,
2013-09-01 09:15:00,78.7,74.8,29.91,WSW,257,1.0,1.0,88,0.00,,,0.00,Wunderground v.1.15,2013-09-01 14:15:00,
2013-09-01 09:25:00,79.4,75.2,29.91,WNW,302,1.0,2.0,87,0.00,,,0.00,Wunderground v.1.15,2013-09-01 14:25:00,
2013-09-01 09:35:00,80.1,75.2,29.91,SE,136,1.0,1.0,85,0.00,,,0.00,Wunderground v.1.15,2013-09-01 14:35:00,
2013-09-01 09:45:00,80.9,75.6,29.91,SSW,194,0.0,1.0,84,0.00,,,0.00,Wunderground v.1.15,2013-09-01 14:45:00,
2013-09-01 09:50:00,81.2,74.8,29.91,WSW,256,1.0,1.0,81,0.00,,,0.00,Wunderground v.1.15,2013-09-01 14:50:00,
2013-09-01 10:00:00,82.0,75.2,29.91,West,281,1.0,1.0,80,0.00,,,0.00,Wunderground v.1.15,2013-09-01 15:00:00,
2013-09-01 10:05:00,82.4,75.2,29.91,SSE,148,1.0,1.0,79,0.00,,,0.00,Wunderground v.1.15,2013-09-01 15:05:00,
2013-09-01 10:15:00,83.1,74.7,29.91,WNW,282,1.0,1.0,76,0.00,,,0.00,Wunderground v.1.15,2013-09-01 15:15:00,
2013-09-01 10:25:00,83.8,74.2,29.91,SSW,193,1.0,2.0,73,0.00,,,0.00,Wunderground v.1.15,2013-09-01 15:25:00,
2013-09-01 10:30:00,84.0,74.0,29.91,West,278,1.0,1.0,72,0.00,,,0.00,Wunderground v.1.15,2013-09-01 15:30:00,
2013-09-01 10:40:00,84.6,74.6,29.90,NW,316,1.0,4.0,72,0.00,,,0.00,Wunderground v.1.15,2013-09-01 15:40:00,
2013-09-01 10:45:00,85.1,74.2,29.91,South,191,1.0,4.0,70,0.00,,,0.00,Wunderground v.1.15,2013-09-01 15:45:00,
2013-09-01 10:55:00,85.5,73.3,29.91,West,267,2.0,6.0,67,0.00,,,0.00,Wunderground v.1.15,2013-09-01 15:55:00,
2013-09-01 11:05:00,86.4,73.7,29.91,WNW,299,1.0,2.0,66,0.00,,,0.00,Wunderground v.1.15,2013-09-01 16:05:00,
2013-09-01 11:10:00,86.6,73.9,29.91,SW,217,1.0,2.0,66,0.00,,,0.00,Wunderground v.1.15,2013-09-01 16:10:00,
2013-09-01 11:20:00,87.1,73.9,29.91,WNW,290,1.0,3.0,65,0.00,,,0.00,Wunderground v.1.15,2013-09-01 16:20:00,
2013-09-01 11:30:00,87.9,73.7,29.91,NNW,342,1.0,1.0,63,0.00,,,0.00,Wunderground v.1.15,2013-09-01 16:30:00,
2013-09-01 11:40:00,88.5,73.8,29.91,SW,231,1.0,2.0,62,0.00,,,0.00,Wunderground v.1.15,2013-09-01 16:40:00,
2013-09-01 11:50:00,89.4,73.7,29.91,ESE,114,1.0,1.0,60,0.00,,,0.00,Wunderground v.1.15,2013-09-01 16:50:00,
2013-09-01 12:00:00,89.8,72.5,29.91,SW,231,2.0,2.0,57,0.00,,,0.00,Wunderground v.1.15,2013-09-01 17:00:00,
2013-09-01 12:10:00,90.4,73.6,29.90,SSW,205,1.0,1.0,58,0.00,,,0.00,Wunderground v.1.15,2013-09-01 17:10:00,
2013-09-01 12:20:00,90.9,74.1,29.90,WSW,249,2.0,2.0,58,0.00,,,0.00,Wunderground v.1.15,2013-09-01 17:20:00,
2013-09-01 12:30:00,91.0,72.6,29.89,NNW,330,2.0,2.0,55,0.00,,,0.00,Wunderground v.1.15,2013-09-01 17:30:00,
2013-09-01 12:40:00,92.2,73.2,29.89,West,260,2.0,2.0,54,0.00,,,0.00,Wunderground v.1.15,2013-09-01 17:40:00,
2013-09-01 12:50:00,93.2,73.5,29.89,SSW,197,1.0,1.0,53,0.00,,,0.00,Wunderground v.1.15,2013-09-01 17:50:00,
2013-09-01 12:55:00,94.1,73.2,29.89,East,98,1.0,1.0,51,0.00,,,0.00,Wunderground v.1.15,2013-09-01 17:55:00,
2013-09-01 13:05:00,95.2,73.0,29.88,ENE,63,1.0,1.0,49,0.00,,,0.00,Wunderground v.1.15,2013-09-01 18:05:00,
2013-09-01 13:15:00,95.9,72.4,29.88,ESE,122,1.0,2.0,47,0.00,,,0.00,Wunderground v.1.15,2013-09-01 18:15:00,
2013-09-01 13:20:00,96.3,72.8,29.88,ESE,113,1.0,3.0,47,0.00,,,0.00,Wunderground v.1.15,2013-09-01 18:20:00,
2013-09-01 13:30:00,95.6,72.2,29.88,West,267,2.0,2.0,47,0.00,,,0.00,Wunderground v.1.15,2013-09-01 18:30:00,
2013-09-01 13:35:00,96.0,73.1,29.87,WSW,248,1.0,2.0,48,0.00,,,0.00,Wunderground v.1.15,2013-09-01 18:35:00,
2013-09-01 13:45:00,97.6,72.7,29.87,ESE,109,1.0,1.0,45,0.00,,,0.00,Wunderground v.1.15,2013-09-01 18:45:00,
2013-09-01 13:55:00,97.7,72.1,29.86,East,97,1.0,2.0,44,0.00,,,0.00,Wunderground v.1.15,2013-09-01 18:55:00,
2013-09-01 14:05:00,98.2,70.5,29.86,SE,124,1.0,2.0,41,0.00,,,0.00,Wunderground v.1.15,2013-09-01 19:05:00,
2013-09-01 14:15:00,98.2,72.6,29.86,WNW,284,2.0,2.0,44,0.00,,,0.00,Wunderground v.1.15,2013-09-01 19:15:00,
2013-09-01 14:20:00,97.9,70.9,29.86,SSW,210,1.0,1.0,42,0.00,,,0.00,Wunderground v.1.15,2013-09-01 19:20:00,
2013-09-01 14:30:00,98.9,71.8,29.85,SSE,167,1.0,1.0,42,0.00,,,0.00,Wunderground v.1.15,2013-09-01 19:30:00,
2013-09-01 14:35:00,99.4,71.5,29.85,ESE,109,1.0,1.0,41,0.00,,,0.00,Wunderground v.1.15,2013-09-01 19:35:00,
2013-09-01 14:45:00,99.9,72.0,29.85,ENE,77,1.0,2.0,41,0.00,,,0.00,Wunderground v.1.15,2013-09-01 19:45:00,
2013-09-01 14:55:00,99.0,70.5,29.84,ESE,114,2.0,3.0,40,0.00,,,0.00,Wunderground v.1.15,2013-09-01 19:55:00,
2013-09-01 15:05:00,99.6,70.2,29.84,WNW,284,2.0,2.0,39,0.00,,,0.00,Wunderground v.1.15,2013-09-01 20:05:00,
2013-09-01 15:15:00,100.7,70.5,29.84,East,82,1.0,2.0,38,0.00,,,0.00,Wunderground v.1.15,2013-09-01 20:15:00,
2013-09-01 15:25:00,100.3,70.1,29.83,ESE,118,1.0,1.0,38,0.00,,,0.00,Wunderground v.1.15,2013-09-01 20:25:00,
2013-09-01 15:35:00,98.3,69.1,29.83,West,262,1.0,4.0,39,0.00,,,0.00,Wunderground v.1.15,2013-09-01 20:35:00,
2013-09-01 15:45:00,98.9,68.9,29.83,WNW,298,1.0,2.0,38,0.00,,,0.00,Wunderground v.1.15,2013-09-01 20:45:00,
2013-09-01 15:54:00,99.5,69.4,29.83,SSE,150,2.0,2.0,38,0.00,,,0.00,Wunderground v.1.15,2013-09-01 20:54:00,
2013-09-01 16:00:00,100.0,70.6,29.82,ESE,120,2.0,3.0,39,0.00,,,0.00,Wunderground v.1.15,2013-09-01 21:00:00,
2013-09-01 16:10:00,100.9,71.4,29.82,NNW,335,1.0,1.0,39,0.00,,,0.00,Wunderground v.1.15,2013-09-01 21:10:00,
2013-09-01 16:15:00,101.2,70.1,29.82,SSW,210,2.0,2.0,37,0.00,,,0.00,Wunderground v.1.15,2013-09-01 21:15:00,
2013-09-01 16:25:00,101.1,69.2,29.82,NW,315,1.0,2.0,36,0.00,,,0.00,Wunderground v.1.15,2013-09-01 21:25:00,
2013-09-01 16:34:00,101.4,69.5,29.82,WNW,287,0.0,2.0,36,0.00,,,0.00,Wunderground v.1.15,2013-09-01 21:34:00,
2013-09-01 16:40:00,100.8,69.0,29.81,SSE,150,1.0,1.0,36,0.00,,,0.00,Wunderground v.1.15,2013-09-01 21:40:00,
2013-09-01 16:50:00,99.8,69.7,29.81,East,98,1.0,1.0,38,0.00,,,0.00,Wunderground v.1.15,2013-09-01 21:50:00,
2013-09-01 17:00:00,98.6,69.4,29.81,SSE,159,1.0,1.0,39,0.00,,,0.00,Wunderground v.1.15,2013-09-01 22:00:00,
2013-09-01 17:10:00,99.1,69.8,29.81,East,98,1.0,1.0,39,0.00,,,0.00,Wunderground v.1.15,2013-09-01 22:10:00,
2013-09-01 17:20:00,98.3,69.1,29.81,ESE,115,1.0,1.0,39,0.00,,,0.00,Wunderground v.1.15,2013-09-01 22:20:00,
2013-09-01 17:30:00,98.3,69.1,29.81,ESE,113,1.0,1.0,39,0.00,,,0.00,Wunderground v.1.15,2013-09-01 22:30:00,
2013-09-01 17:40:00,97.9,68.7,29.81,ESE,114,1.0,1.0,39,0.00,,,0.00,Wunderground v.1.15,2013-09-01 22:40:00,
2013-09-01 17:50:00,98.4,68.4,29.81,ESE,110,1.0,1.0,38,0.00,,,0.00,Wunderground v.1.15,2013-09-01 22:50:00,
2013-09-01 18:00:00,98.1,68.2,29.81,West,262,1.0,2.0,38,0.00,,,0.00,Wunderground v.1.15,2013-09-01 23:00:00,
2013-09-01 18:10:00,97.5,68.4,29.81,ESE,107,1.0,1.0,39,0.00,,,0.00,Wunderground v.1.15,2013-09-01 23:10:00,
2013-09-01 18:20:00,96.8,69.2,29.80,ESE,123,1.0,1.0,41,0.00,,,0.00,Wunderground v.1.15,2013-09-01 23:20:00,
2013-09-01 18:30:00,96.2,68.7,29.80,East,94,1.0,1.0,41,0.00,,,0.00,Wunderground v.1.15,2013-09-01 23:30:00,
2013-09-01 18:40:00,95.8,68.3,29.80,SSE,149,0.0,0.0,41,0.00,,,0.00,Wunderground v.1.15,2013-09-01 23:40:00,
2013-09-01 18:50:00,95.6,68.1,29.79,SE,124,0.0,1.0,41,0.00,,,0.00,Wunderground v.1.15,2013-09-01 23:50:00,
2013-09-01 19:00:00,95.2,67.8,29.80,SE,140,1.0,1.0,41,0.00,,,0.00,Wunderground v.1.15,2013-09-02 00:00:00,
2013-09-01 19:10:00,94.9,68.2,29.80,SSE,167,0.0,0.0,42,0.00,,,0.00,Wunderground v.1.15,2013-09-02 00:10:00,
2013-09-01 19:20:00,94.5,67.9,29.80,SE,134,0.0,0.0,42,0.00,,,0.00,Wunderground v.1.15,2013-09-02 00:20:00,
2013-09-01 19:30:00,93.9,68.7,29.80,SE,134,0.0,0.0,44,0.00,,,0.00,Wunderground v.1.15,2013-09-02 00:30:00,
2013-09-01 19:40:00,92.3,67.9,29.81,SE,131,0.0,0.0,45,0.00,,,0.00,Wunderground v.1.15,2013-09-02 00:40:00,
2013-09-01 19:50:00,91.1,67.4,29.81,SE,131,0.0,0.0,46,0.00,,,0.00,Wunderground v.1.15,2013-09-02 00:50:00,
2013-09-01 19:59:00,90.2,67.9,29.81,SE,131,0.0,0.0,48,0.00,,,0.00,Wunderground v.1.15,2013-09-02 00:59:00,
2013-09-01 20:05:00,89.7,67.4,29.81,SE,131,0.0,0.0,48,0.00,,,0.00,Wunderground v.1.15,2013-09-02 01:05:00,
2013-09-01 20:15:00,89.0,67.9,29.81,SE,131,0.0,0.0,50,0.00,,,0.00,Wunderground v.1.15,2013-09-02 01:15:00,
2013-09-01 20:25:00,88.6,67.6,29.81,SE,127,0.0,0.0,50,0.00,,,0.00,Wunderground v.1.15,2013-09-02 01:25:00,
2013-09-01 20:35:00,88.7,67.7,29.82,SE,124,0.0,0.0,50,0.00,,,0.00,Wunderground v.1.15,2013-09-02 01:35:00,
2013-09-01 20:40:00,88.7,67.1,29.82,SE,124,0.0,1.0,49,0.00,,,0.00,Wunderground v.1.15,2013-09-02 01:40:00,
2013-09-01 20:50:00,88.7,67.1,29.82,ESE,112,0.0,1.0,49,0.00,,,0.00,Wunderground v.1.15,2013-09-02 01:50:00,
2013-09-01 20:59:00,88.7,67.7,29.83,SE,131,0.0,0.0,50,0.00,,,0.00,Wunderground v.1.15,2013-09-02 01:59:00,
2013-09-01 21:05:00,88.3,67.3,29.83,SE,130,0.0,0.0,50,0.00,,,0.00,Wunderground v.1.15,2013-09-02 02:05:00,
2013-09-01 21:15:00,87.5,67.1,29.83,SE,131,0.0,0.0,51,0.00,,,0.00,Wunderground v.1.15,2013-09-02 02:15:00,
2013-09-01 21:20:00,87.1,67.3,29.83,SE,131,0.0,0.0,52,0.00,,,0.00,Wunderground v.1.15,2013-09-02 02:20:00,
2013-09-01 21:30:00,86.8,67.6,29.83,SE,131,0.0,0.0,53,0.00,,,0.00,Wunderground v.1.15,2013-09-02 02:30:00,
2013-09-01 21:39:00,86.4,67.8,29.84,SE,131,0.0,0.0,54,0.00,,,0.00,Wunderground v.1.15,2013-09-02 02:39:00,
2013-09-01 21:45:00,86.2,67.1,29.84,SE,131,0.0,0.0,53,0.00,,,0.00,Wunderground v.1.15,2013-09-02 02:45:00,
2013-09-01 21:55:00,85.6,68.1,29.85,SE,131,0.0,0.0,56,0.00,,,0.00,Wunderground v.1.15,2013-09-02 02:55:00,
2013-09-01 22:05:00,85.3,67.3,29.85,SE,129,0.0,0.0,55,0.00,,,0.00,Wunderground v.1.15,2013-09-02 03:05:00,
2013-09-01 22:15:00,86.4,67.8,29.86,ESE,114,1.0,1.0,54,0.00,,,0.00,Wunderground v.1.15,2013-09-02 03:15:00,
2013-09-01 22:20:00,86.5,68.4,29.86,SE,138,1.0,1.0,55,0.00,,,0.00,Wunderground v.1.15,2013-09-02 03:20:00,
2013-09-01 22:30:00,86.4,69.4,29.87,ESE,113,1.0,4.0,57,0.00,,,0.00,Wunderground v.1.15,2013-09-02 03:30:00,
2013-09-01 22:40:00,86.1,70.6,29.87,SSE,155,1.0,1.0,60,0.00,,,0.00,Wunderground v.1.15,2013-09-02 03:40:00,
2013-09-01 22:45:00,85.9,70.9,29.87,SE,145,1.0,1.0,61,0.00,,,0.00,Wunderground v.1.15,2013-09-02 03:45:00,
2013-09-01 22:55:00,85.5,71.5,29.87,West,271,1.0,1.0,63,0.00,,,0.00,Wunderground v.1.15,2013-09-02 03:55:00,
2013-09-01 23:05:00,85.0,71.9,29.87,ESE,113,1.0,3.0,65,0.00,,,0.00,Wunderground v.1.15,2013-09-02 04:05:00,
2013-09-01 23:10:00,84.8,72.2,29.88,East,79,1.0,2.0,66,0.00,,,0.00,Wunderground v.1.15,2013-09-02 04:10:00,
2013-09-01 23:20:00,84.4,72.2,29.88,ESE,117,1.0,1.0,67,0.00,,,0.00,Wunderground v.1.15,2013-09-02 04:20:00,
2013-09-01 23:25:00,84.1,72.4,29.88,East,86,1.0,2.0,68,0.00,,,0.00,Wunderground v.1.15,2013-09-02 04:25:00,
2013-09-01 23:30:00,84.0,72.3,29.88,ESE,123,1.0,1.0,68,0.00,,,0.00,Wunderground v.1.15,2013-09-02 04:30:00,
2013-09-01 23:40:00,83.6,72.8,29.88,ESE,122,1.0,1.0,70,0.00,,,0.00,Wunderground v.1.15,2013-09-02 04:40:00,
2013-09-01 23:50:00,83.3,73.3,29.89,SW,229,1.0,3.0,72,0.00,,,0.00,Wunderground v.1.15,2013-09-02 04:50:00,